(393) Lampetia
ephemeris date magn radius delta ra dec elong phase
Opposition8 Dec 202413.13.224 AU2.263 AU05h09m+07°46'164.9°4.6°
Today15 Jan 202513.83.317 AU2.563 AU04h42m+07°10'133.3°12.5°
(393) Lampetia - 2025-01-15
astro.vanbuitenen.nl


 
-1 year
-1 month
-1 day
Now
+1 day
+1 month
+1 year

The interactive orbit chart above shows the body's path through the solar system and its position at the given date. Green and blue lines are shown perpendicular to the ecliptic plane: Green if the path is above the ecliptic plane, blue if it is below. (Left-click and drag to rotate the view; Right-click and drag to move the view; Use scroll wheel to zoom in our out.)

The orbital elements of Lampetia are:

            e (Eccentricity)                : 0.3306008
            a (Semimajor axis)              : 2.7831238
            i (Inclination)                 : 14.86456
            Ω (Longitude of ascending node) : 212.37138
            ω (Argument of perihelion)      : 91.07402
            M (Mean anomaly)                : 90.89307
            Epoch                           : 2024 Oct 17

            L (Longitude of perihelion)     : 123.48258
            B (Latitude of perihelion)      : 14.86189
            P (Orbital period in years)     : 4.64            
        

The light curve chart below shows the estimated development of the minor planet's magnitude.


The all-sky chart below shows the path of the minor planet over the same period as the light curve. The current position is marked yellow.





The following chart shows the path of the minor planet in the next few days. The field of view is optimized for (~10x50) binoculars and finderscopes. A more printer-friendly version of the same chart can be found below.




Ephemerides:
Date       Time       RA (2000)    DEC (2000)    delta   radius  elong  phase   PA    magn
2025-01-15 00:00 UT   04 42 09.9   +07 10 35     2.563    3.317  133.3   12.5    68   13.8 
2025-01-15 09:46 UT   04 42 00.5   +07 11 05     2.568    3.317  132.9   12.5    68   13.8 
2025-01-16 00:00 UT   04 41 47.2   +07 11 51     2.576    3.319  132.3   12.7    68   13.8 
2025-01-17 00:00 UT   04 41 25.7   +07 13 13     2.589    3.321  131.3   12.9    69   13.8 
2025-01-18 00:00 UT   04 41 05.6   +07 14 41     2.602    3.324  130.3   13.1    69   13.9 
2025-01-19 00:00 UT   04 40 46.8   +07 16 14     2.615    3.326  129.2   13.2    70   13.9 
2025-01-20 00:00 UT   04 40 29.3   +07 17 52     2.628    3.328  128.2   13.4    70   13.9 
2025-01-21 00:00 UT   04 40 13.2   +07 19 36     2.642    3.330  127.2   13.6    70   13.9 
2025-01-22 00:00 UT   04 39 58.3   +07 21 24     2.656    3.333  126.2   13.8    71   13.9 
2025-01-23 00:00 UT   04 39 44.8   +07 23 18     2.669    3.335  125.2   14.0    71   14.0 
2025-01-24 00:00 UT   04 39 32.7   +07 25 16     2.683    3.337  124.2   14.1    72   14.0 
2025-01-25 00:00 UT   04 39 21.8   +07 27 19     2.698    3.340  123.2   14.3    72   14.0 
2025-01-26 00:00 UT   04 39 12.3   +07 29 27     2.712    3.342  122.2   14.4    72   14.0 
2025-01-27 00:00 UT   04 39 04.0   +07 31 39     2.726    3.344  121.2   14.6    73   14.0 
2025-01-28 00:00 UT   04 38 57.2   +07 33 55     2.741    3.346  120.2   14.7    73   14.0 
2025-01-29 00:00 UT   04 38 51.6   +07 36 16     2.756    3.349  119.2   14.9    74   14.1 
2025-01-30 00:00 UT   04 38 47.3   +07 38 40     2.770    3.351  118.2   15.0    74   14.1 
2025-01-31 00:00 UT   04 38 44.4   +07 41 08     2.785    3.353  117.2   15.1    74   14.1 
2025-02-01 00:00 UT   04 38 42.7   +07 43 40     2.801    3.355  116.3   15.3    75   14.1 
2025-02-02 00:00 UT   04 38 42.3   +07 46 16     2.816    3.357  115.3   15.4    75   14.1 
2025-02-03 00:00 UT   04 38 43.2   +07 48 55     2.831    3.360  114.3   15.5    75   14.2 
2025-02-04 00:00 UT   04 38 45.4   +07 51 37     2.846    3.362  113.4   15.6    76   14.2 
2025-02-05 00:00 UT   04 38 48.9   +07 54 23     2.862    3.364  112.4   15.7    76   14.2 
2025-02-06 00:00 UT   04 38 53.6   +07 57 11     2.877    3.366  111.5   15.8    76   14.2 
2025-02-07 00:00 UT   04 38 59.5   +08 00 02     2.893    3.368  110.5   15.9    76   14.2 
2025-02-08 00:00 UT   04 39 06.7   +08 02 56     2.909    3.371  109.6   16.0    77   14.2 
2025-02-09 00:00 UT   04 39 15.1   +08 05 53     2.925    3.373  108.7   16.1    77   14.3 
2025-02-10 00:00 UT   04 39 24.6   +08 08 52     2.941    3.375  107.7   16.2    77   14.3 
2025-02-11 00:00 UT   04 39 35.4   +08 11 53     2.957    3.377  106.8   16.2    78   14.3 
2025-02-12 00:00 UT   04 39 47.4   +08 14 57     2.973    3.379  105.9   16.3    78   14.3 
2025-02-13 00:00 UT   04 40 00.5   +08 18 02     2.989    3.381  105.0   16.4    78   14.3 
2025-02-14 00:00 UT   04 40 14.7   +08 21 10     3.005    3.383  104.1   16.4    78   14.3 


    Terminology:
            
    delta:  distance between minor planet and earth in AU
    radius: distance between minor planet and sun in AU
    magn:   magnitude (brightness) estimate    
    ra:     right ascension in hours (24h = 360deg)
    dec:    declination in degrees
    elong:  elongation in degrees (angle sun-earth-minor planet)    
    phase:  phase angle in degrees (angle sun-minor planet-earth)        
    AU:     Astronomical Unit (mean distance between earth and sun: 149597870.7 km
    

Orbital elements provided by the MPC (Minor Planet Center).
Calculations by a modified version of AAPlus, a C# implementation of the AA+ project by PJ Naughter from the algorithms presented in the book "Astronomical Algorithms" by Jean Meeus.
NGC2000 dso catalog and star labels from VizieR as provided by the Strasbourg astronomical Data Center.
Tycho2 catalog from the ESO archive.